[[{"header":{"parameterUnit":"m.s-1","parameterCategory":1,"la1":30.2991,"la2":30.254,"lo1":-89.0895,"lo2":-89.0444,"dy":0.0017,"dx":0.0017,"nx":28,"ny":28,"refTime":"2025-08-28T09:00:00:Z","depth":0,"parameterNumber":2,"parameterNumberName":"U-component_of_WINDS"},"data":[0,0,0,0,0,0,0,0,0,0,0,0,0,0,0,0,0,0,0,0,0,0,0,0,0,0,0,0,0,0,0,0,0,0,0,0,0,0,0,0,0,0,0,0,0,0,0,0,0,0,0,0,0,0,0,0,0,0,1.4104,1.4104,0,1.4104,1.4104,1.4104,1.4069,1.4068,1.4068,1.4067,1.4066,1.4067,1.4067,0,0,0,0,0,0,0,0,0,0,0,0,0,1.4074,1.4075,1.4104,1.4104,1.4104,1.4104,1.4104,1.4104,1.407,1.4068,1.4067,1.4066,1.4066,1.4066,1.4067,0,0,0,0,0,0,0,0,0,0,0,0,0,1.4082,1.4075,1.4104,1.4087,1.4086,1.4104,1.4104,1.4104,1.407,1.4068,1.4067,1.4066,1.4065,1.4066,1.4068,1.4102,0,0,1.4071,1.4072,0,0,0,0,0,0,0,0,1.4082,1.4083,1.409,1.4088,1.4087,1.4085,1.4093,1.4103,1.407,1.4076,1.4067,1.4065,1.4073,1.4074,1.4077,1.4102,1.4102,1.4071,1.4072,1.4073,1.4073,0,0,0,0,0,0,0,1.4081,1.4083,1.4104,1.409,1.4088,1.4079,1.4079,1.4095,1.4082,1.4075,1.4073,1.4073,1.4072,1.4076,1.4076,1.4102,1.4071,1.4072,1.4073,1.4074,1.4152,1.4154,0,0,0,0,0,0,1.4083,1.4083,1.4104,1.4104,1.4081,1.4081,1.408,1.4087,1.4082,1.408,1.4074,1.4071,1.4074,1.4075,1.4076,1.4114,1.4073,1.4074,1.4074,1.4151,1.4153,1.4154,0,0,0,0,0,0,1.4083,1.4085,1.4104,1.4093,1.4094,1.4083,1.4091,1.4088,1.4091,1.4081,1.4079,1.408,1.4073,1.4074,1.4095,1.4113,1.4074,1.4075,1.415,1.4152,1.4154,1.419,0,0,0,0,0,0,1.4082,1.4085,1.4099,1.4093,1.4095,1.4124,1.4092,1.4089,1.4093,1.409,1.4086,1.4084,1.4072,1.4094,1.4096,1.4114,1.4076,1.4148,1.415,1.4153,1.4188,1.4194,1.4199,0,0,0,0,0,1.4081,1.411,1.41,1.4102,1.4112,1.4125,1.4126,1.4112,1.4095,1.4108,1.4101,1.4084,1.4111,1.4096,1.4099,1.4117,1.4147,1.415,1.4153,1.4185,1.4192,1.4199,0,0,0,0,0,0,1.4118,1.4109,1.4097,1.4126,1.4126,1.4119,1.4135,1.4121,1.4126,1.4122,1.4105,1.4104,1.4127,1.4125,1.4108,1.4149,1.4126,1.413,1.4149,1.4156,1.4162,1.4161,1.4077,0,0,0,0,0,1.413,1.4141,1.4133,1.4158,1.4159,1.4147,1.4152,1.4141,1.4141,1.4141,1.4136,1.4137,1.4145,1.4151,1.4158,1.4188,1.4185,1.4202,1.4207,1.4212,1.4215,1.4227,1.4234,1.4164,1.4164,1.4164,0,0,1.4153,1.415,1.4158,1.4165,1.4165,1.4176,1.4147,1.4162,1.4169,1.4144,1.4162,1.4158,1.4158,1.4182,1.4193,1.4181,1.4234,1.4216,1.422,1.422,1.4231,1.4238,1.4244,1.4166,1.4166,1.4166,0,0,1.4202,1.4201,1.4221,1.4221,1.4219,1.4211,1.4216,1.4211,1.4207,1.4225,1.4205,1.4215,1.423,1.423,1.4231,1.4278,1.4262,1.4281,1.4309,1.4322,1.4327,1.4332,1.4346,1.4352,1.4285,1.4285,1.4285,0,1.4231,1.4248,1.4233,1.4248,1.425,1.4227,1.4246,1.4247,1.4248,1.425,1.4237,1.4255,1.4253,1.4275,1.4286,1.429,1.4293,1.4281,1.4328,1.4333,1.4337,1.435,1.4356,1.4287,1.4287,1.4286,1.4286,0,1.4283,1.4295,1.4311,1.4312,1.4317,1.4334,1.432,1.4327,1.4316,1.4309,1.4326,1.4323,1.4328,1.4333,1.4323,1.4354,1.4346,1.4331,1.4307,1.4346,1.4358,1.4363,1.429,1.4289,1.4289,1.4288,0,0,1.4354,1.4346,1.4351,1.435,1.4347,1.4356,1.4371,1.4376,1.4381,1.4383,1.4394,1.4407,1.4392,1.4394,1.4383,1.4395,1.4429,1.4378,1.4377,1.4385,1.446,1.4469,1.4476,1.4419,1.442,1.442,1.4459,0,1.4398,1.4423,1.441,1.4437,1.4446,1.4424,1.4437,1.4436,1.4429,1.4436,1.4429,1.4437,1.4419,1.4419,1.443,1.4422,1.4443,1.442,1.4427,1.4427,1.4425,1.4482,1.4493,1.4529,1.4464,1.4465,1.4465,0,1.4453,1.4456,1.4484,1.4476,1.448,1.4492,1.4494,1.4501,1.4499,1.4493,1.4495,1.4481,1.4494,1.4472,1.4489,1.4474,1.4476,1.4473,1.4474,1.4472,1.4447,1.4479,1.4541,1.4545,1.4473,1.4472,1.4472,0,1.4499,1.451,1.4527,1.4527,1.452,1.4529,1.4526,1.4523,1.4526,1.4528,1.4529,1.4533,1.4535,1.4538,1.4524,1.451,1.4542,1.452,1.4536,1.4537,1.4542,1.4542,1.4603,1.4548,1.4548,1.4548,1.4548,0,1.4548,1.4565,1.4547,1.4557,1.4575,1.4559,1.4577,1.4572,1.4569,1.4577,1.4559,1.4567,1.4551,1.4557,1.4547,1.4561,1.4563,1.4557,1.4554,1.4558,1.4558,1.4557,1.4553,1.455,1.4549,1.4549,1.4549,0,1.4601,1.459,1.4607,1.4598,1.4596,1.4609,1.4602,1.461,1.4603,1.4613,1.4615,1.4603,1.4609,1.4596,1.4601,1.4594,1.4614,1.4608,1.4614,1.4611,1.4628,1.4625,1.4688,1.4694,1.4639,1.4639,1.464,0,1.4632,1.4645,1.4637,1.4641,1.4639,1.4646,1.4649,1.4634,1.4637,1.4634,1.4643,1.4648,1.465,1.4661,1.4652,1.4655,1.4647,1.4669,1.4647,1.465,1.4644,1.4643,1.4643,1.4673,1.4673,1.4674,1.4674,0,1.4688,1.4681,1.4686,1.4688,1.4691,1.4692,1.4692,1.4696,1.468,1.4684,1.469,1.4692,1.4696,1.47,1.4701,1.4697,1.4683,1.4681,1.4685,1.4687,1.4689,1.4686,1.4623,1.468,1.4679,1.4679,1.4678,1.4678,1.4729,1.4738,1.4733,1.4738,1.4736,1.4736,1.4743,1.4735,1.474,1.4741,1.4733,1.474,1.4736,1.4735,1.4733,1.4738,1.4728,1.4734,1.4735,1.4736,1.4737,1.4691,1.4739,1.4738,1.4738,1.4738,1.4738,0,1.4781,1.4777,1.4781,1.4781,1.4784,1.4771,1.4769,1.4773,1.4779,1.4777,1.4779,1.4785,1.4788,1.478,1.4781,1.4787,1.478,1.4788,1.4786,1.4785,1.4748,1.4743,1.4793,1.4793,1.4793,1.4793,1.4793,1.4793,1.4808,1.4821,1.4814,1.4826,1.4822,1.4828,1.4828,1.4827,1.4825,1.4831,1.4834,1.4828,1.4823,1.4824,1.4826,1.4823,1.4824,1.4833,1.4828,1.4793,1.4788,1.4782,1.4778,1.4834,1.4834,1.4864,1.4865,1.4865]},{"header":{"parameterUnit":"m.s-1","parameterCategory":1,"la1":30.2991,"la2":30.254,"lo1":-89.0895,"lo2":-89.0444,"dy":0.0017,"dx":0.0017,"nx":28,"ny":28,"refTime":"2025-08-28T09:00:00:Z","depth":0,"parameterNumber":3,"parameterNumberName":"V-component_of_WINDS"},"data":[0,0,0,0,0,0,0,0,0,0,0,0,0,0,0,0,0,0,0,0,0,0,0,0,0,0,0,0,0,0,0,0,0,0,0,0,0,0,0,0,0,0,0,0,0,0,0,0,0,0,0,0,0,0,0,0,0,0,4.2888,4.2888,0,4.2879,4.2879,4.2879,4.2809,4.2807,4.2805,4.2804,4.2795,4.2797,4.2798,0,0,0,0,0,0,0,0,0,0,0,0,0,4.2843,4.2845,4.2888,4.2888,4.2888,4.2879,4.2879,4.2879,4.2809,4.2807,4.2805,4.2803,4.2795,4.2797,4.2798,0,0,0,0,0,0,0,0,0,0,0,0,0,4.2852,4.2845,4.2888,4.2852,4.2848,4.2879,4.2879,4.2879,4.281,4.2807,4.2804,4.2802,4.2794,4.2796,4.2798,4.2864,0,0,4.2805,4.2806,0,0,0,0,0,0,0,0,4.2851,4.2853,4.2857,4.2854,4.2851,4.2842,4.286,4.2874,4.281,4.2824,4.2804,4.2801,4.2813,4.2814,4.2818,4.2863,4.2863,4.2805,4.2806,4.2807,4.2808,0,0,0,0,0,0,0,4.2851,4.2853,4.2885,4.2857,4.2853,4.2836,4.2834,4.2863,4.2834,4.2823,4.2818,4.2818,4.2811,4.2816,4.2817,4.2863,4.2805,4.2807,4.2808,4.2809,4.296,4.2962,0,0,0,0,0,0,4.2855,4.2853,4.2885,4.2884,4.2845,4.2839,4.2837,4.2848,4.2833,4.2828,4.282,4.2815,4.2814,4.2815,4.2816,4.289,4.2807,4.2809,4.281,4.2957,4.296,4.2963,0,0,0,0,0,0,4.2855,4.2859,4.2885,4.2867,4.2869,4.2842,4.2855,4.2849,4.2854,4.2831,4.2825,4.283,4.2812,4.2813,4.2852,4.2889,4.281,4.2812,4.2954,4.2958,4.2962,4.3039,0,0,0,0,0,0,4.2854,4.2859,4.2884,4.2868,4.2871,4.2921,4.2857,4.2851,4.2858,4.285,4.2839,4.2835,4.281,4.2849,4.2854,4.289,4.2814,4.295,4.2956,4.296,4.3033,4.3046,4.3056,0,0,0,0,0,4.2852,4.2906,4.2885,4.2889,4.2901,4.2923,4.2925,4.2895,4.2861,4.2885,4.287,4.2835,4.2885,4.2854,4.2859,4.2896,4.2948,4.2954,4.296,4.3028,4.3043,4.3056,0,0,0,0,0,0,4.2926,4.2903,4.288,4.2931,4.2929,4.2911,4.2941,4.2912,4.292,4.2913,4.2876,4.2874,4.2918,4.2911,4.2877,4.2958,4.291,4.2917,4.296,4.2974,4.2985,4.2985,4.2815,0,0,0,0,0,4.2949,4.2969,4.2948,4.2995,4.2995,4.2969,4.2977,4.2954,4.2952,4.2951,4.2939,4.2938,4.2952,4.2963,4.2976,4.3033,4.3028,4.3061,4.3072,4.3082,4.3088,4.3116,4.313,4.2983,4.2983,4.2983,0,0,4.2995,4.2985,4.3,4.3009,4.3006,4.3027,4.2969,4.2994,4.3009,4.2955,4.2989,4.2981,4.2977,4.3025,4.3045,4.302,4.3128,4.3089,4.3097,4.3098,4.3124,4.3138,4.315,4.2988,4.2987,4.2986,0,0,4.3089,4.3085,4.3122,4.3119,4.3114,4.3096,4.3106,4.3092,4.3084,4.3119,4.3078,4.3096,4.3123,4.3121,4.3124,4.3218,4.3185,4.3223,4.3282,4.331,4.3321,4.3331,4.3363,4.3375,4.323,4.323,4.323,0,4.3147,4.3178,4.3145,4.3173,4.3177,4.3129,4.3166,4.3165,4.3165,4.317,4.3142,4.3175,4.3169,4.3214,4.3237,4.3242,4.325,4.3223,4.3322,4.3332,4.3341,4.3371,4.3383,4.3235,4.3234,4.3234,4.3233,0,4.3248,4.327,4.3301,4.3301,4.331,4.3342,4.3314,4.3327,4.3303,4.3288,4.3323,4.3315,4.3324,4.3334,4.3311,4.3376,4.3361,4.3329,4.328,4.336,4.3387,4.3399,4.3241,4.324,4.3238,4.3237,0,0,4.3388,4.337,4.3381,4.338,4.3371,4.3387,4.3418,4.3427,4.3438,4.3439,4.3463,4.3487,4.3457,4.346,4.3437,4.3462,4.3535,4.3426,4.3426,4.3445,4.3604,4.3627,4.3641,4.3514,4.3516,4.3518,4.3604,0,4.3478,4.3527,4.3499,4.3553,4.3571,4.3526,4.3552,4.3549,4.3536,4.355,4.3535,4.3552,4.3512,4.3514,4.3536,4.3521,4.3566,4.3515,4.3535,4.3536,4.3535,4.3656,4.368,4.3762,4.3615,4.3617,4.3618,0,4.3588,4.3594,4.3649,4.3635,4.3642,4.3666,4.3672,4.3686,4.3682,4.3671,4.3674,4.3645,4.3674,4.3627,4.3665,4.363,4.3637,4.3631,4.3634,4.3633,4.3581,4.3657,4.3787,4.3799,4.3635,4.3633,4.3632,0,4.3683,4.3704,4.374,4.3741,4.3726,4.3744,4.3738,4.3732,4.3739,4.3744,4.3747,4.3756,4.3761,4.3768,4.3742,4.371,4.3783,4.3734,4.3774,4.3774,4.3789,4.3789,4.3921,4.3797,4.3797,4.3797,4.3796,0,4.3784,4.382,4.3782,4.3803,4.3842,4.3809,4.3847,4.3837,4.3832,4.385,4.3812,4.3831,4.3796,4.3811,4.3791,4.3825,4.3828,4.3819,4.3812,4.3821,4.3822,4.3824,4.3817,4.38,4.3799,4.3799,4.3798,0,4.3895,4.3872,4.3907,4.389,4.3887,4.3915,4.3901,4.392,4.3904,4.3929,4.3932,4.3908,4.3923,4.3898,4.3912,4.3898,4.3944,4.3931,4.3945,4.3941,4.3981,4.3977,4.4118,4.4134,4.4001,4.4003,4.4004,0,4.3961,4.3987,4.3972,4.3982,4.3979,4.3995,4.4001,4.397,4.3979,4.3976,4.3995,4.4008,4.4016,4.4043,4.4026,4.4036,4.4021,4.407,4.4022,4.4029,4.402,4.4018,4.4019,4.4079,4.4081,4.4082,4.4083,0,4.4079,4.4066,4.4077,4.4083,4.4092,4.4096,4.4097,4.4107,4.4074,4.4086,4.4101,4.4107,4.412,4.4133,4.4138,4.4132,4.4102,4.4098,4.4108,4.4116,4.4123,4.4118,4.397,4.4095,4.4094,4.4093,4.4092,4.4092,4.4168,4.4188,4.4181,4.4194,4.4192,4.4193,4.421,4.4196,4.4208,4.4216,4.4197,4.4217,4.4211,4.4215,4.4213,4.4228,4.4207,4.4221,4.4224,4.4227,4.4233,4.4122,4.4229,4.4229,4.4229,4.4228,4.4228,0,4.4283,4.4276,4.4288,4.429,4.4301,4.4271,4.4271,4.4281,4.4299,4.4296,4.4305,4.4322,4.4334,4.4318,4.4327,4.4342,4.4329,4.4346,4.4343,4.4342,4.4252,4.4243,4.4356,4.4356,4.4356,4.4356,4.4356,4.4356,4.4343,4.4376,4.4362,4.4392,4.4385,4.4403,4.4405,4.4407,4.4404,4.4425,4.4435,4.4424,4.4416,4.4424,4.4434,4.4429,4.4434,4.4455,4.4446,4.4361,4.4349,4.4337,4.4327,4.4457,4.4457,4.4534,4.4534,4.4535]}]]